Total_Precipitation_Accumulation
2.75 2.84 2.73 2.66 2.47 2.43 2.44 2.33 2.22 2.23 2.13 1.93 1.68 1.66 1.75 1.71 1.76 1.95 1.97 2.10 2.19 2.53 3.05 3.34 3.32 3.18 3.21 3.30 3.25 3.11 2.87 2.68 2.55 2.29 2.02 1.80 1.69 1.62 1.47 1.40 1.37 1.31 1.28
2.99 3.07 3.01 2.92 2.81 2.74 2.81 2.62 2.44 2.62 2.48 2.33 2.11 2.04 1.99 2.07 2.05 2.10 2.27 2.34 2.23 2.28 2.68 3.13 3.40 3.53 3.60 3.55 3.45 3.16 2.93 2.80 2.79 2.62 2.37 2.13 1.95 1.82 1.69 1.58 1.47 1.39 1.34
3.08 3.16 3.29 3.20 3.14 3.10 3.13 3.06 2.98 3.03 2.75 2.57 2.40 2.30 2.28 2.37 2.35 2.26 2.40 2.55 2.39 2.44 2.52 2.68 2.92 3.17 3.47 3.62 3.60 3.40 3.15 2.97 2.89 2.83 2.74 2.53 2.30 2.13 2.00 1.84 1.73 1.67 1.61
3.19 3.49 3.55 3.50 3.52 3.44 3.53 3.62 3.54 3.34 3.15 2.94 2.75 2.43 2.32 2.48 2.53 2.52 2.54 2.60 2.75 2.62 2.58 2.50 2.58 2.74 3.05 3.45 3.60 3.69 3.56 3.34 3.14 2.99 2.92 2.81 2.69 2.48 2.25 2.03 1.92 1.90 1.85
3.67 3.86 3.95 3.97 3.96 3.99 3.97 3.79 3.94 3.74 3.63 3.42 2.99 2.71 2.42 2.35 2.42 2.38 2.51 2.48 2.60 2.65 2.70 2.60 2.57 2.62 2.84 3.30 3.49 3.76 3.82 3.71 3.56 3.33 3.16 3.00 2.98 2.86 2.63 2.40 2.22 2.06 1.96
4.28 4.44 4.36 4.38 4.43 4.49 4.32 4.29 4.33 4.11 3.85 3.78 3.31 3.01 2.73 2.46 2.44 2.44 2.47 2.59 2.52 2.34 2.48 2.58 2.73 2.57 2.76 2.95 3.12 3.43 3.75 3.94 3.88 3.66 3.59 3.47 3.32 3.14 2.81 2.53 2.30 2.16 2.04
5.18 5.24 5.01 4.99 4.90 4.78 4.56 4.50 4.38 4.15 3.90 3.91 3.77 3.29 2.68 2.31 2.23 2.14 2.20 2.44 2.47 2.36 2.41 2.50 2.55 2.48 2.38 2.48 2.59 2.89 3.35 3.83 4.13 4.01 3.81 3.65 3.38 3.18 2.94 2.70 2.47 2.34 2.18
6.01 6.02 5.98 5.77 5.60 5.34 4.86 4.51 4.37 4.14 3.78 3.91 3.93 3.84 3.12 2.61 2.13 1.73 1.84 1.92 2.03 2.25 2.23 2.19 2.32 2.43 2.32 2.33 2.16 2.33 2.64 3.09 3.69 4.00 3.94 3.66 3.47 3.32 3.16 2.99 2.80 2.63 2.45
6.12 6.25 6.20 5.99 5.69 5.17 4.63 4.47 4.42 4.26 4.00 3.93 3.84 4.01 3.46 2.90 2.45 1.95 1.70 1.61 1.75 1.88 1.91 1.93 1.98 2.10 2.11 2.18 2.14 2.17 2.31 2.48 3.00 3.51 3.62 3.38 3.18 3.07 3.05 3.00 2.92 2.80 2.66
5.90 5.83 5.65 5.23 4.86 4.51 4.23 4.11 4.16 4.04 4.02 3.84 3.74 3.46 3.23 2.95 2.68 2.26 1.82 1.60 1.65 1.70 1.72 1.70 1.73 1.93 2.04 2.09 2.13 2.09 2.05 2.15 2.47 2.87 3.14 3.15 3.02 2.96 2.96 2.97 2.94 2.93 2.93
5.08 4.69 4.38 4.16 4.07 3.88 3.68 3.56 3.57 3.49 3.34 3.25 3.23 3.18 3.13 2.89 2.55 2.34 2.03 1.82 1.81 1.66 1.65 1.74 1.81 1.89 2.01 2.09 2.14 2.12 2.07 1.94 2.06 2.21 2.40 2.61 2.75 2.83 2.91 3.04 3.09 3.06 3.06
4.31 3.81 3.54 3.34 3.21 3.05 2.85 2.74 2.73 2.75 2.84 2.91 2.98 2.96 2.90 2.84 2.65 2.57 2.38 2.13 2.02 1.91 1.83 1.80 1.86 1.95 2.13 2.26 2.23 2.40 2.10 1.91 1.89 1.95 1.97 2.06 2.25 2.43 2.59 2.80 3.03 3.13 3.18
3.91 3.44 2.99 2.78 2.55 2.35 2.24 2.22 2.21 2.21 2.32 2.45 2.57 2.63 2.61 2.55 2.50 2.58 2.67 2.41 2.16 2.01 1.92 1.88 1.89 1.98 2.01 2.20 2.43 2.57 2.20 2.02 1.88 1.80 1.79 1.81 1.90 2.02 2.13 2.25 2.49 2.72 2.92
3.28 2.97 2.53 2.19 1.98 1.84 1.73 1.82 1.84 1.86 1.93 2.04 2.12 2.32 2.33 2.26 2.37 2.47 2.60 2.67 2.55 2.21 1.95 1.90 1.96 1.98 1.98 2.00 2.26 2.42 2.09 2.08 1.83 1.72 1.72 1.76 1.75 1.77 1.84 1.93 2.12 2.33 2.46
2.35 2.20 2.01 1.81 1.70 1.66 1.66 1.69 1.66 1.65 1.74 1.83 1.90 2.05 2.18 2.17 2.24 2.30 2.44 2.55 2.61 2.43 2.18 2.03 2.00 1.93 1.93 2.00 2.20 1.85 1.79 1.99 1.83 1.69 1.62 1.58 1.55 1.56 1.59 1.63 1.69 1.80 1.90
1.67 1.65 1.61 1.60 1.56 1.50 1.57 1.65 1.57 1.55 1.65 1.67 1.66 1.76 1.87 1.94 2.05 2.14 2.27 2.37 2.44 2.40 2.26 2.04 1.96 1.91 1.88 1.78 1.96 1.67 1.67 1.86 1.72 1.60 1.50 1.44 1.41 1.44 1.45 1.50 1.55 1.57 1.58
1.41 1.41 1.43 1.45 1.45 1.43 1.45 1.46 1.41 1.43 1.48 1.63 1.72 1.76 1.79 1.83 1.92 1.93 1.95 2.01 2.15 2.29 2.38 2.27 2.07 1.99 1.97 1.89 1.78 1.59 1.48 1.47 1.48 1.54 1.48 1.43 1.36 1.33 1.37 1.36 1.33 1.31 1.30
1.31 1.33 1.34 1.35 1.40 1.47 1.49 1.42 1.32 1.31 1.40 1.52 1.63 1.70 1.68 1.63 1.70 1.79 1.86 1.86 1.90 2.02 2.14 2.19 2.05 1.89 1.87 1.85 1.79 1.73 1.46 1.32 1.33 1.36 1.28 1.21 1.19 1.16 1.12 1.14 1.15 1.12 1.09
1.31 1.27 1.22 1.26 1.33 1.37 1.37 1.32 1.26 1.25 1.27 1.35 1.42 1.44 1.44 1.46 1.43 1.47 1.55 1.63 1.63 1.64 1.80 1.86 1.84 1.78 1.73 1.67 1.73 1.70 1.55 1.57 1.30 1.22 1.12 1.03 1.00 0.98 0.93 0.91 0.95 1.02 1.01
1.24 1.28 1.25 1.20 1.18 1.11 1.04 1.01 1.01 1.06 1.06 1.08 1.13 1.15 1.20 1.28 1.31 1.34 1.33 1.39 1.44 1.56 1.63 1.70 1.66 1.63 1.63 1.54 1.57 1.62 1.57 1.47 1.32 1.09 1.08 0.95 0.87 0.81 0.80 0.81 0.80 0.83 0.88
1.02 1.06 1.09 1.02 0.93 0.80 0.71 0.71 0.76 0.80 0.86 0.88 0.90 0.88 0.89 1.04 1.14 1.13 1.04 1.16 1.31 1.47 1.55 1.58 1.52 1.42 1.38 1.45 1.43 1.40 1.42 1.42 1.34 1.20 1.23 1.05 0.95 0.89 0.90 0.87 0.81 0.77 0.80
1.04 0.96 0.91 0.89 0.81 0.63 0.63 0.60 0.67 0.79 0.88 0.87 0.90 0.90 0.83 0.87 0.90 0.87 0.85 0.99 1.19 1.25 1.35 1.48 1.48 1.44 1.39 1.41 1.41 1.40 1.47 1.53 1.54 1.34 1.32 1.21 1.08 1.08 1.02 0.95 0.89 0.79 0.76
1.13 1.09 0.97 0.92 0.91 0.82 0.67 0.55 0.58 0.74 0.86 0.88 0.89 0.88 0.77 0.72 0.81 0.81 0.82 0.85 0.93 0.95 1.08 1.33 1.48 1.42 1.41 1.49 1.57 1.53 1.61 1.64 1.56 1.46 1.53 1.48 1.24 1.12 0.90 0.82 0.87 0.77 0.74
1.12 1.07 1.00 0.93 0.85 0.69 0.54 0.47 0.49 0.62 0.80 0.85 0.85 0.85 0.86 0.79 0.75 0.77 0.77 0.82 0.90 0.95 0.98 1.04 1.29 1.33 1.32 1.43 1.53 1.60 1.69 1.64 1.55 1.50 1.58 1.60 1.31 1.22 0.98 0.97 0.91 0.78 0.74
1.01 0.95 0.86 0.82 0.82 0.68 0.46 0.40 0.46 0.62 0.79 0.80 0.76 0.70 0.75 0.77 0.75 0.72 0.77 0.92 0.99 1.03 0.89 0.91 1.02 1.13 1.17 1.26 1.33 1.43 1.66 1.82 1.70 1.48 1.46 1.56 1.36 1.27 1.15 1.08 0.97 0.86 0.77
0.94 0.85 0.73 0.75 0.77 0.74 0.58 0.49 0.51 0.61 0.76 0.76 0.75 0.71 0.66 0.65 0.65 0.67 0.77 0.91 0.99 1.00 0.92 0.92 1.10 1.21 1.20 1.28 1.32 1.44 1.69 1.76 1.65 1.59 1.41 1.48 1.42 1.41 1.39 1.14 1.03 0.96 0.89